Elat, Israel

7:24 AM IST on February 20, 2017 (GMT +0200)
Eilat

Weather History for LLET - January, 2014

Change the Weather History Date:

Sunday, January 26, 2014

  Actual Average Record
Temperature  
Mean Temperature 64 °F -  
Max Temperature 76 °F 70 °F 82 °F (2013)
Min Temperature 51 °F 53 °F 46 °F (2016)
Degree Days  
Heating Degree Days 2    
Growing Degree Days 14 (Base 50)    
Moisture  
Dew Point 40 °F    
Average Humidity 34    
Maximum Humidity 58    
Minimum Humidity 15    
Precipitation  
Precipitation 0.00 in 0.01 in - ()
Sea Level Pressure  
Sea Level Pressure 29.79 in    
Wind  
Wind Speed 6 mph ()    
Max Wind Speed 15 mph    
Max Gust Speed -    
Visibility 6.0 miles    
Events      
Averages and records for this station are not official NWS values.
T = Trace of Precipitation, MM = Missing Value Source: Averaged Metar Reports

Daily Weather History Graph

Daily Weather History Graph

Search for Another Location

Airport or City:

Trip Planner

Search our weather history database for the weather conditions in past years. The results will help you decide how hot, cold, wet, or windy it might be!

Date:

Astronomy

Jan. 26, 2014 Rise Set
Actual Time 6:32 AM IST 5:12 PM IST
Civil Twilight 6:07 AM IST 5:38 PM IST
Nautical Twilight 5:38 AM IST 6:06 PM IST
Astronomical Twilight 5:10 AM IST 6:35 PM IST
Moon 1:47 AM IST (1/26) 12:45 PM IST (1/26)
Length of Visible Light 11h 30m
Length of Day
10h 39m
Waning Crescent, 27% of the Moon is Illuminated
Jan 26
Waning Crescent
Jan 30
New
Feb 6
First Quarter
Feb 15
Full
Feb 22
Last Quarter

Hourly Weather History & Observations

Time (IST) Temp. Dew Point Humidity Pressure Visibility Wind Dir Wind Speed Gust Speed Precip Events Conditions
2:00 AM 60 °F 36 °F 29% 29.87 in - North 4.6 mph - -  
5:00 AM 53 °F 37 °F 43% 29.81 in - NE 2.3 mph - -  
5:30 AM 53.6 °F 35.6 °F 51% 29.83 in - NE 5.8 mph - N/A   Clear
5:50 AM 53.6 °F 37.4 °F 54% 29.86 in - NE 15.0 mph - N/A   Clear
6:50 AM 51.8 °F 37.4 °F 58% 29.86 in - NE 11.5 mph - N/A   Clear
7:50 AM 59.0 °F 37.4 °F 45% 29.86 in - NE 8.1 mph - N/A   Clear
8:00 AM 62 °F 35 °F 25% 29.85 in - North 3.5 mph - -  
8:50 AM 66.2 °F 41.0 °F 40% 29.86 in - NE 9.2 mph - N/A   Clear
9:50 AM 69.8 °F 37.4 °F 31% 29.83 in - NE 11.5 mph - N/A   Clear
10:50 AM 71.6 °F 37.4 °F 29% 29.83 in - ENE 10.4 mph - N/A   Clear
11:00 AM 72 °F 37 °F 17% 29.81 in 6 mi ENE 4.6 mph - -   Partly Cloudy
11:50 AM 71.6 °F 39.2 °F 31% 29.80 in - ENE 9.2 mph - N/A   Clear
12:50 PM 75.2 °F 37.4 °F 25% 29.77 in - East 4.6 mph - N/A   Clear
1:50 PM 75.2 °F 37.4 °F 25% 29.77 in - Variable 3.5 mph - N/A   Clear
2:00 PM 74 °F 38 °F 17% 29.73 in - South 2.3 mph - -  
2:50 PM 73.4 °F 44.6 °F 36% 29.74 in - SSW 6.9 mph - N/A   Clear
3:50 PM 73.4 °F 42.8 °F 33% 29.74 in - WSW 6.9 mph - N/A   Clear
4:50 PM 75.2 °F 35.6 °F 24% 29.74 in - West 10.4 mph - N/A   Clear
5:00 PM 74 °F 36 °F 15% 29.71 in 6 mi WSW 4.6 mph - -   Mostly Cloudy
5:50 PM 75.2 °F 41.0 °F 29% 29.74 in - WSW 9.2 mph - N/A   Clear
6:50 PM 73.4 °F 44.6 °F 36% 29.77 in - WSW 10.4 mph - N/A   Clear
7:50 PM 73.4 °F 46.4 °F 38% 29.77 in - West 5.8 mph - N/A   Clear
8:00 PM 72 °F 46 °F 28% 29.75 in - West 3.5 mph - -  
8:50 PM 71.6 °F 48.2 °F 43% 29.77 in - SW 4.6 mph - N/A   Clear
9:50 PM 71.6 °F 50.0 °F 46% 29.77 in - SW 4.6 mph - N/A   Clear
11:00 PM 72 °F 52 °F 39% 29.74 in - SW 3.5 mph - -